Wind_Speed
12 12 13 13 13 14 14 14 14 15 15 15 14 14 14 15 15 15 16 16 16 16 16 16 15 15 14 14 14 14 14 14 14 13 11 12 13 13 13 13 14 14 12 12 12 13 13 13 13 14 15 17 18 18 18 18 18 15 17 20 21 22 21 19 19 17 11 7 3 5 2 10 6 6 7 3 8 14 12 10 8 8 9 10 10 10 12 14
12 12 13 13 13 13 14 14 14 14 14 14 14 14 14 14 14 15 15 15 15 15 15 15 15 15 15 14 14 14 14 14 14 12 10 13 12 10 13 13 13 13 12 12 12 12 11 11 12 14 15 16 17 17 18 18 19 20 21 23 24 24 22 19 19 18 16 17 9 6 2 9 4 2 3 2 7 12 13 12 11 10 8 8 11 14 14 17
12 12 13 13 13 14 14 14 14 14 14 14 14 14 14 14 14 14 15 15 15 15 15 15 15 15 15 15 15 14 14 14 13 12 11 13 11 10 13 12 13 12 11 12 12 12 11 11 12 14 15 16 17 16 16 16 18 20 22 26 26 23 22 21 20 16 12 17 11 3 5 5 4 4 3 3 8 11 15 15 13 13 12 11 11 14 17 20
13 13 13 13 13 14 14 14 14 14 14 14 14 14 14 14 14 14 14 15 15 15 14 14 14 15 15 15 15 14 14 13 13 12 10 10 10 10 11 11 12 12 11 12 12 13 12 14 14 13 14 15 15 14 15 15 16 17 21 27 24 22 24 23 19 14 12 16 11 5 4 6 1 2 2 2 7 13 16 16 14 13 14 16 14 15 19 23
13 13 13 13 14 14 14 14 14 14 14 14 14 14 14 14 14 14 15 15 15 15 15 14 14 15 15 15 15 14 13 12 12 13 10 8 8 8 9 10 11 11 11 12 12 13 14 16 14 10 11 13 12 12 14 14 15 18 20 23 20 21 24 22 21 20 19 17 5 4 9 8 4 3 3 2 9 14 17 18 17 16 16 16 15 16 20 24
14 14 14 14 14 14 14 14 14 14 14 14 14 14 14 14 14 14 15 15 15 15 15 15 14 15 15 15 15 14 12 10 10 14 13 8 8 8 8 8 9 10 11 11 12 13 14 16 14 12 11 11 12 15 14 13 15 20 21 20 21 22 24 23 23 21 18 16 8 7 10 12 3 6 3 8 12 12 12 14 14 16 17 14 14 18 22 25
14 14 14 14 14 14 14 14 14 14 14 14 14 14 14 14 14 14 14 14 15 15 15 15 14 14 15 16 15 14 13 10 9 15 16 11 10 9 8 8 7 9 10 10 11 12 13 15 15 15 15 14 13 15 15 14 17 22 22 21 22 23 25 25 21 20 21 22 16 13 12 12 8 9 4 9 14 12 9 8 9 13 17 16 16 20 24 25
14 15 15 15 15 15 15 14 14 14 14 14 14 14 14 14 14 13 14 14 14 14 15 15 15 14 15 16 16 15 14 9 9 14 16 14 13 11 10 10 9 8 8 9 11 12 13 16 15 15 16 17 14 13 13 15 19 23 25 23 23 24 25 25 22 19 20 23 22 20 18 15 11 9 7 9 14 14 11 7 9 9 10 15 19 22 25 24
14 15 15 15 15 15 15 15 14 14 14 14 14 14 14 14 13 13 13 13 14 14 15 15 15 15 15 16 16 16 15 12 12 14 15 16 15 13 11 11 10 9 8 9 11 12 15 16 14 14 16 16 15 14 12 15 19 20 22 23 24 25 24 24 23 20 17 21 22 15 13 14 14 11 10 11 15 15 13 14 14 7 5 10 19 23 23 23
14 15 15 15 15 15 15 15 15 14 14 14 14 14 14 14 14 13 13 13 13 14 15 15 15 15 16 15 16 16 15 14 13 15 16 16 15 13 11 11 11 10 9 10 11 12 15 14 11 10 12 14 17 18 16 18 18 17 20 23 24 24 23 23 22 23 19 16 14 8 6 9 13 16 15 14 14 16 14 15 14 9 6 9 17 22 22 21
15 15 15 15 15 15 15 15 15 15 15 14 14 14 14 14 14 14 13 13 13 14 15 15 15 16 16 16 16 14 11 12 15 17 18 15 15 14 11 12 12 11 10 10 11 13 14 12 10 8 12 13 15 18 19 20 19 21 23 24 24 23 23 23 22 25 22 17 16 15 14 13 14 17 17 14 14 20 17 12 10 8 8 10 15 21 21 18
16 16 16 16 15 15 15 16 15 15 15 15 14 14 14 14 14 14 13 13 14 15 15 15 16 16 16 16 14 11 9 14 17 17 18 15 13 13 12 14 13 12 12 11 12 13 12 11 10 12 15 14 13 14 17 18 19 22 22 22 24 23 24 23 22 25 24 22 21 20 19 20 19 18 16 14 18 22 22 16 12 9 11 11 13 19 19 19
17 17 16 16 16 15 15 16 16 16 15 15 15 15 15 14 14 13 13 13 14 16 16 16 17 17 18 16 10 11 13 16 18 16 17 17 13 11 13 14 13 13 12 13 15 11 6 8 12 17 19 18 18 16 15 13 12 17 19 22 25 25 25 22 21 23 26 24 19 16 21 23 21 20 18 17 19 21 22 21 18 15 15 13 12 15 19 20
16 16 17 16 16 16 15 15 16 16 16 15 15 15 15 14 14 13 13 14 14 16 16 17 18 18 19 14 9 14 16 15 17 17 18 19 16 12 13 14 13 14 14 15 17 13 8 11 17 21 23 22 20 18 17 14 11 14 17 21 23 26 28 22 19 21 24 25 18 16 22 23 20 20 20 20 21 23 23 20 21 21 18 15 14 14 17 19
16 16 17 17 17 17 16 16 16 16 16 15 15 15 15 15 14 13 13 14 15 16 16 17 18 19 20 15 11 14 15 13 14 14 16 18 17 15 12 11 11 13 13 15 16 17 18 17 15 19 23 23 20 18 18 17 14 12 15 20 21 25 29 25 22 22 23 24 21 21 24 23 21 19 19 20 22 26 26 18 18 21 18 16 17 17 17 18
16 16 16 17 17 17 17 16 16 16 16 16 15 15 15 15 14 14 14 14 15 16 16 17 18 18 18 15 12 12 12 12 10 11 14 15 16 14 10 9 8 10 12 14 17 19 21 21 17 16 19 23 21 18 16 18 17 13 16 21 21 22 26 25 25 24 23 25 25 27 27 23 22 20 20 20 19 24 26 20 18 20 20 19 18 19 19 18
16 17 17 17 17 17 17 17 16 16 16 16 16 15 16 15 14 14 15 14 15 16 17 17 18 18 16 14 12 8 9 10 8 9 13 14 14 11 9 10 8 7 9 12 15 17 18 20 18 16 18 21 21 17 16 19 20 18 19 21 23 23 23 24 26 24 22 25 28 30 29 26 23 19 20 22 20 24 29 28 25 23 23 23 21 21 21 20
18 18 18 18 18 19 18 18 17 16 16 16 16 16 16 15 14 15 15 15 16 17 17 16 18 17 10 8 6 1 5 7 8 10 9 10 10 10 13 12 10 9 9 11 13 14 15 17 17 16 17 20 21 21 23 25 22 21 22 23 25 26 25 24 24 23 22 25 30 32 31 28 24 20 18 21 21 25 33 33 29 27 26 27 25 24 22 20
19 19 19 20 20 20 20 20 19 18 16 16 16 16 15 15 15 15 15 16 18 18 17 16 18 16 7 3 2 5 5 7 10 12 10 9 8 11 15 12 13 13 11 14 14 13 14 15 16 19 21 21 23 26 28 27 21 21 23 24 25 25 26 24 21 21 23 26 32 35 34 29 27 23 20 21 19 21 31 34 30 27 26 28 27 25 24 21
20 20 20 20 20 21 21 20 20 19 18 16 16 15 14 15 14 15 18 19 19 18 18 17 19 20 14 9 3 5 1 10 13 11 11 13 9 12 16 13 17 18 15 16 15 11 12 16 20 23 24 22 20 23 25 24 21 23 25 26 26 26 26 25 25 24 22 27 34 36 34 31 28 22 19 21 19 17 28 36 29 23 24 28 28 25 22 19
20 20 20 20 20 20 20 20 19 19 18 17 16 15 14 14 14 17 21 23 19 17 19 18 20 22 15 13 10 7 7 14 17 13 12 14 12 13 17 17 20 21 18 17 15 11 12 20 24 23 21 19 17 19 20 20 20 23 25 25 26 27 28 24 25 27 25 28 35 35 29 28 28 21 18 20 18 14 24 32 23 19 21 24 27 23 19 20
19 19 19 20 20 20 19 19 18 18 17 16 16 15 13 13 15 17 22 25 19 16 19 18 20 23 16 12 13 14 15 14 17 17 13 14 16 15 17 19 21 21 18 16 17 17 19 24 25 20 16 16 17 18 20 21 20 21 22 23 25 28 27 22 22 26 29 27 32 34 24 23 25 20 16 16 18 17 19 21 19 19 18 18 22 24 23 25
17 17 18 19 18 19 18 18 17 16 15 14 13 14 14 13 14 16 20 25 21 16 18 19 19 22 18 15 14 18 20 15 16 19 15 16 19 17 17 20 19 18 18 18 18 22 25 20 16 16 15 16 19 19 21 24 23 22 21 21 26 27 23 20 18 10 19 19 24 32 24 20 22 20 17 16 18 20 20 20 20 19 15 15 22 25 25 27
15 15 16 17 17 17 16 16 15 14 13 12 10 11 13 13 13 16 19 24 25 18 13 15 19 20 17 13 14 22 23 18 18 18 16 17 18 17 18 18 17 17 19 20 18 21 26 18 10 11 14 16 20 21 21 23 21 19 18 20 26 27 22 20 18 4 18 21 17 20 16 13 18 19 20 19 18 21 24 26 24 20 18 17 22 24 23 24
13 13 14 14 14 14 14 13 11 11 9 7 7 7 9 11 13 16 17 19 25 20 11 12 17 16 12 10 14 20 22 19 21 20 19 20 17 16 18 18 18 20 19 20 20 21 24 22 17 16 15 14 17 21 23 22 21 19 18 19 23 27 25 21 19 13 6 15 13 11 5 7 14 17 20 19 19 24 27 29 27 23 22 22 22 25 24 20
12 12 13 13 13 12 12 10 8 8 9 9 10 9 6 9 11 11 13 16 22 21 14 13 14 10 10 14 14 13 17 21 21 19 20 23 20 16 18 19 19 21 19 18 21 23 21 20 22 22 19 17 17 21 21 18 18 21 24 23 21 23 24 22 20 18 10 7 12 12 7 8 13 16 20 20 21 25 28 28 26 23 24 24 26 29 26 22
13 12 12 13 13 11 9 10 8 8 11 12 12 11 9 10 9 6 7 10 13 12 8 12 12 8 10 13 14 15 17 17 18 17 22 25 24 19 19 20 18 19 19 17 21 24 22 18 18 21 21 20 22 22 20 15 17 22 24 22 21 19 20 19 17 16 15 7 9 12 9 9 14 18 20 19 18 22 27 26 25 25 25 25 28 29 25 24
14 12 12 13 14 12 8 10 9 8 11 13 13 12 9 7 6 4 2 3 2 2 5 13 13 8 6 9 15 20 16 10 11 15 22 25 25 21 22 24 21 18 16 17 21 22 20 18 16 17 18 17 17 17 16 15 18 21 20 18 19 19 18 16 14 14 15 10 7 11 10 8 11 17 18 18 21 23 25 24 25 26 24 24 27 26 22 23
13 11 10 10 13 12 8 10 10 9 11 13 12 10 6 3 7 6 1 1 2 1 4 11 13 10 7 10 17 21 16 12 12 11 17 22 24 22 22 23 24 23 18 18 23 21 18 17 16 17 20 19 17 15 15 16 19 19 16 15 16 16 19 20 19 17 13 8 6 8 12 8 8 15 16 17 27 29 24 24 25 25 24 22 22 21 20 20
12 10 8 8 11 11 9 10 11 9 11 12 10 6 4 6 9 5 3 3 5 5 5 8 11 11 10 12 17 20 18 17 14 11 16 22 22 22 22 21 22 24 21 18 22 23 18 14 14 18 20 19 19 19 17 17 19 18 14 14 14 15 19 21 20 19 10 6 10 13 14 8 6 14 16 13 22 27 25 27 26 23 23 21 18 18 18 18
13 11 10 8 9 10 9 11 10 8 8 9 8 7 9 11 9 5 3 5 9 7 8 10 10 13 14 15 18 19 18 17 16 15 19 23 23 23 23 22 22 21 22 22 20 21 21 17 14 16 14 13 16 18 18 16 18 17 15 15 14 13 14 15 13 16 7 3 10 15 15 13 8 10 13 11 16 20 22 27 27 23 22 20 18 19 18 17
13 12 12 10 9 9 9 11 9 6 7 7 7 10 12 11 9 10 7 5 7 3 6 9 8 12 15 15 18 18 17 16 17 17 22 26 23 23 24 24 22 19 20 24 19 16 22 24 18 14 13 14 13 15 17 17 20 20 18 15 9 5 5 6 5 7 5 3 7 10 12 14 10 2 6 7 13 16 19 21 22 22 22 20 19 20 20 19
14 13 12 11 9 8 9 11 10 7 7 7 8 12 14 7 7 16 17 12 5 4 3 4 4 7 13 16 17 18 17 16 15 17 22 25 22 22 23 23 22 19 17 18 18 15 18 22 21 18 18 17 16 19 18 15 17 18 17 18 11 2 2 3 3 2 3 5 11 16 14 10 7 4 2 4 9 11 12 13 16 19 21 21 19 19 19 19
14 13 12 11 9 8 8 10 10 9 8 9 10 14 14 8 8 15 18 19 16 6 9 12 10 8 11 16 18 17 17 18 16 16 20 22 23 23 23 23 23 22 19 17 18 17 13 15 20 20 19 17 18 23 21 13 13 15 15 15 15 10 6 3 2 1 2 3 10 17 11 5 7 8 6 5 9 9 10 11 13 14 15 14 15 16 17 18
13 12 11 10 8 8 8 8 9 9 9 10 13 16 17 15 15 15 15 18 18 17 17 15 14 15 12 13 16 15 17 18 16 18 21 22 23 23 23 24 22 23 23 19 17 17 14 14 18 19 19 18 18 21 23 16 11 14 18 17 16 13 9 7 6 5 2 3 2 5 4 5 9 10 7 6 9 11 12 15 16 15 13 11 11 14 16 17
11 10 8 9 8 7 6 7 8 8 9 10 15 21 22 20 18 15 14 13 14 17 20 20 18 20 17 14 14 15 18 19 17 18 21 24 25 23 22 23 22 22 25 21 16 15 15 14 14 16 19 21 19 17 21 19 10 7 14 18 17 15 12 10 8 7 3 2 0 4 9 11 11 9 8 10 11 14 16 17 18 16 15 14 14 14 13 13
10 8 7 8 8 4 2 4 6 6 8 11 16 21 23 22 19 16 15 14 16 18 21 23 20 18 16 15 16 15 16 19 20 18 17 20 24 23 21 21 21 21 23 24 20 15 14 16 14 12 14 19 17 15 17 19 15 10 10 11 11 11 12 11 5 2 2 1 3 9 13 15 11 9 12 14 13 14 15 15 16 16 16 15 16 14 11 9
8 7 7 8 6 2 2 4 5 6 6 11 17 20 21 21 20 19 18 18 20 20 21 23 21 18 16 13 13 14 15 18 20 19 16 14 15 19 19 17 18 19 17 19 23 20 14 15 14 11 12 13 14 16 16 16 17 15 12 10 8 5 4 5 2 1 3 1 3 6 13 11 7 11 16 16 15 14 14 15 16 16 16 16 16 14 11 9
6 5 6 6 6 6 7 8 8 9 10 12 16 18 19 19 18 16 17 18 21 22 22 22 21 20 18 14 12 13 14 17 18 19 19 15 11 15 19 16 16 18 15 12 16 19 15 12 11 11 14 11 9 16 18 14 15 18 16 11 11 10 5 4 5 2 2 2 2 1 3 1 3 11 17 17 16 15 16 18 18 17 17 17 17 15 13 12
6 5 4 5 6 7 9 10 12 13 14 15 16 17 17 18 17 15 14 16 19 20 21 22 21 21 18 15 15 15 14 14 16 20 20 17 13 14 18 18 16 18 19 14 10 11 13 15 12 10 13 12 7 11 16 9 7 14 18 16 12 10 5 3 8 9 4 2 2 1 0 2 2 9 16 17 17 15 15 16 16 15 14 15 16 16 15 15
5 4 4 5 7 9 9 11 13 13 14 14 14 15 16 15 16 16 15 16 19 19 21 23 23 23 18 14 16 18 18 15 11 18 16 14 15 14 14 16 17 20 22 19 12 6 5 12 17 13 11 12 5 4 8 4 6 3 5 10 10 9 9 4 2 9 10 4 1 3 2 0 3 8 15 18 19 16 12 13 13 12 12 13 14 14 13 13
4 4 5 6 8 9 10 10 10 10 12 14 13 15 16 17 18 17 15 16 17 17 18 20 21 21 17 13 14 16 18 16 6 10 10 10 13 14 14 17 19 18 20 20 16 8 2 5 15 17 15 16 12 6 6 6 4 2 8 10 8 5 7 11 6 5 7 6 3 3 3 5 6 10 15 16 16 15 13 12 13 13 13 14 13 12 10 10
4 5 6 8 10 9 9 10 10 10 13 15 16 17 17 18 21 20 17 14 14 16 17 16 14 13 13 11 12 16 16 13 6 2 4 5 8 9 11 16 20 18 18 21 18 11 5 3 5 12 13 16 18 15 11 8 7 6 7 12 10 11 6 10 16 16 13 10 4 3 2 6 10 12 16 13 11 13 15 12 11 12 13 13 12 11 11 11
5 7 8 9 11 10 10 13 13 13 16 17 18 19 17 17 20 22 18 12 12 15 14 12 10 8 9 12 15 16 14 10 6 1 2 2 5 8 8 8 14 12 12 20 20 15 11 3 5 2 3 6 13 14 13 12 8 4 10 16 12 9 9 2 10 15 13 11 10 4 2 7 13 14 14 10 8 10 11 12 11 12 14 14 13 13 13 13
6 8 6 7 10 11 12 13 13 15 16 17 19 19 17 15 15 19 17 13 13 13 9 9 7 8 11 13 15 16 12 13 10 4 1 2 3 4 6 5 11 12 5 10 15 14 16 12 6 2 2 1 3 5 6 8 6 5 10 15 14 10 10 5 5 7 4 6 11 10 8 11 15 15 12 10 10 10 10 12 13 13 15 17 16 15 15 15
4 3 2 4 8 9 11 12 12 13 14 15 15 12 10 10 12 14 14 13 14 11 7 7 5 6 11 13 15 14 7 10 12 8 5 6 6 3 2 4 7 12 11 11 11 8 9 13 12 8 4 1 1 3 3 5 6 6 8 12 13 12 9 3 3 1 2 7 10 12 16 18 17 14 13 13 12 11 11 12 12 13 16 19 19 17 17 18
4 3 3 5 6 8 13 15 12 10 11 11 11 8 5 6 9 11 12 8 10 8 5 4 4 6 10 12 14 12 6 7 9 3 0 2 5 4 4 5 3 10 14 11 11 10 7 6 11 13 11 6 5 6 7 7 7 4 3 8 11 12 10 4 2 2 2 6 10 13 18 20 18 14 14 15 15 15 14 14 13 13 15 17 17 17 19 21
3 3 5 5 6 12 20 22 13 7 9 8 6 7 4 2 6 5 10 7 4 4 3 3 5 5 8 9 10 8 6 8 8 7 2 2 2 3 7 8 5 7 11 10 10 11 6 4 7 10 9 7 5 4 4 5 6 6 6 8 9 11 11 8 3 2 3 6 10 16 19 17 17 15 15 17 19 18 15 13 11 11 13 16 18 20 21 22
2 1 3 5 7 14 23 22 10 5 10 9 8 11 11 9 8 3 3 3 2 2 1 4 6 5 6 5 6 4 2 1 8 9 3 2 4 4 5 6 7 10 8 7 10 12 9 8 8 7 6 6 7 7 4 3 3 5 8 10 12 14 10 8 7 2 3 7 15 21 20 16 15 16 17 19 20 18 16 13 11 12 15 19 22 23 23 21
4 5 4 5 6 14 23 19 6 7 10 11 12 17 17 14 11 10 10 10 9 8 9 7 4 4 1 2 4 2 5 6 5 6 6 5 1 2 2 1 7 14 8 1 7 13 9 5 8 7 5 7 9 9 6 3 2 3 4 7 10 13 11 6 3 4 8 15 22 24 22 19 16 15 18 20 21 20 17 15 15 16 18 17 17 18 18 18
10 10 7 6 9 15 23 17 6 6 8 12 15 16 14 14 12 9 11 14 14 14 13 10 4 2 3 4 4 2 5 7 7 5 3 5 4 2 4 6 4 11 9 4 2 8 5 1 5 5 3 5 6 8 8 5 3 4 3 2 4 7 7 6 3 5 12 20 26 25 23 21 17 15 17 20 22 22 20 19 20 20 19 19 19 18 18 18
14 12 8 7 8 13 21 18 7 3 7 11 13 12 10 11 9 5 5 8 10 10 9 8 4 2 2 3 3 3 5 6 8 9 5 4 4 3 3 5 5 4 5 3 7 5 5 3 2 2 2 1 2 6 8 4 2 3 4 6 4 1 2 3 3 8 14 18 23 25 23 20 18 16 18 21 21 20 21 22 21 21 20 21 21 21 20 19
Wind_Direction
301 300 299 297 296 295 294 293 292 291 291 291 291 293 293 294 295 295 295 295 295 294 294 295 295 295 294 293 292 290 288 286 285 288 291 278 268 272 270 263 263 265 262 258 255 253 248 243 237 225 219 216 216 215 213 194 184 212 234 242 244 238 234 225 228 240 270 338 18 329 214 164 96 110 145 117 222 227 235 239 219 215 225 225 226 231 228 215
301 300 299 298 296 295 294 292 292 291 290 291 291 292 292 292 293 292 293 292 292 293 293 293 293 293 292 292 290 289 288 286 287 288 282 277 276 271 268 263 260 261 259 256 252 248 244 240 234 225 222 218 217 211 209 199 187 202 222 239 244 235 226 216 230 247 274 307 320 12 12 200 186 164 202 196 216 233 246 254 252 253 253 237 237 240 227 210
300 299 298 297 296 294 293 292 292 291 291 291 291 292 291 291 291 291 291 291 291 291 291 291 291 292 291 291 289 288 286 284 287 286 277 279 283 268 264 264 260 260 255 253 248 240 230 223 222 219 220 218 215 209 206 204 199 205 216 233 239 238 238 231 245 259 274 303 303 343 69 146 216 249 284 219 210 238 250 257 257 253 254 253 251 243 225 209
299 298 297 295 295 294 293 292 292 292 291 291 290 290 290 290 290 290 290 290 291 290 290 290 290 291 291 290 289 288 285 283 284 284 279 277 276 267 264 262 258 257 251 248 244 237 224 212 208 207 212 212 210 206 206 209 212 215 220 232 234 237 249 246 248 259 277 300 302 276 162 135 320 259 122 133 240 252 248 251 254 249 252 253 250 237 220 207
297 297 296 295 295 294 293 292 292 292 291 290 289 289 289 289 289 289 290 290 290 289 289 289 289 289 288 288 288 287 283 282 285 283 279 270 269 269 265 260 254 251 246 244 241 235 228 215 198 198 212 206 203 208 210 212 222 230 229 240 249 245 249 246 248 262 285 296 271 185 189 172 14 327 192 292 276 261 242 242 251 254 258 253 241 228 218 208
297 297 296 295 295 293 293 292 292 291 290 289 288 288 288 288 289 289 289 289 289 289 288 288 288 288 287 286 285 284 277 271 283 285 280 272 266 265 264 263 255 248 245 244 242 235 232 222 197 194 223 221 210 216 217 215 226 239 237 241 256 259 256 253 257 264 282 292 244 208 204 190 309 320 267 281 273 268 246 238 253 258 258 252 235 224 214 206
298 297 296 295 294 293 292 291 291 291 290 289 288 288 288 288 288 288 289 289 289 288 288 287 287 286 285 284 281 281 276 261 269 276 275 273 263 258 261 264 258 250 246 242 238 234 232 225 201 186 215 233 228 222 218 220 229 241 244 241 247 257 260 263 271 271 275 286 268 250 235 208 276 301 247 266 267 267 258 242 270 269 255 246 228 221 214 205
297 296 295 294 294 293 292 291 291 290 290 289 289 288 287 287 287 287 288 289 289 289 288 286 285 284 282 282 281 279 275 263 260 267 271 274 269 263 261 258 257 252 239 233 231 230 226 222 203 183 205 226 238 239 227 231 236 240 247 248 251 256 259 264 271 273 274 280 276 272 264 242 264 284 219 247 269 260 250 266 289 274 249 236 220 217 213 204
294 294 294 294 294 293 293 292 292 291 290 290 289 288 287 286 285 286 287 289 290 289 287 285 283 281 279 278 280 279 276 269 259 258 260 264 267 265 260 255 251 245 229 220 220 221 221 214 199 192 209 221 236 250 244 247 245 239 244 246 254 261 263 266 257 255 267 271 270 273 272 248 243 258 221 226 269 261 246 274 280 261 241 223 213 210 206 201
294 294 293 293 294 293 293 292 292 292 291 291 289 289 287 286 285 285 287 288 289 288 286 285 283 281 278 276 278 278 277 277 269 262 261 260 262 260 254 254 247 238 226 216 211 218 224 210 188 198 222 226 229 240 242 247 251 247 250 252 257 259 261 269 254 247 262 268 259 244 254 246 232 245 230 215 254 254 241 266 266 245 242 215 208 207 200 201
294 294 294 294 293 293 293 293 292 292 291 291 290 289 288 286 285 285 286 288 288 287 285 285 283 281 279 275 277 279 272 270 268 264 265 260 258 257 247 245 244 234 221 212 207 214 219 194 166 205 240 245 238 242 241 240 250 254 257 262 258 256 260 266 258 251 256 261 262 261 260 253 237 244 239 209 224 241 240 254 253 238 240 217 208 207 204 208
293 294 294 293 292 292 292 292 292 292 291 291 290 290 289 288 287 285 286 286 286 285 285 285 283 281 279 277 279 276 248 244 256 265 270 263 250 251 250 241 236 232 220 207 204 204 203 178 174 216 232 244 248 252 249 241 254 255 254 263 255 256 263 257 253 249 247 255 264 265 258 245 234 237 238 202 202 234 244 249 255 246 237 222 208 211 215 218
293 294 293 292 292 291 290 291 291 291 291 291 290 290 289 290 289 287 285 283 284 285 286 285 283 282 278 279 281 269 249 239 247 257 264 264 252 243 248 244 232 227 217 205 197 184 186 203 213 223 221 228 235 239 243 235 253 257 253 262 259 260 262 248 248 247 242 252 257 247 242 237 231 229 231 211 203 228 239 245 259 251 234 226 219 221 223 226
293 293 293 293 292 291 290 290 289 290 290 291 291 290 289 290 289 287 284 281 282 283 285 285 284 283 279 282 280 264 259 251 252 254 251 256 263 254 240 239 233 222 212 206 196 172 185 229 232 228 220 220 226 229 231 222 234 257 254 255 257 260 258 244 243 247 243 248 243 232 235 236 235 229 226 220 212 225 233 239 250 246 232 231 239 234 228 234
292 292 293 293 292 292 291 290 290 289 290 290 290 291 290 290 290 287 283 279 280 282 284 284 283 284 283 284 275 264 265 261 262 264 257 256 264 264 244 236 235 221 209 203 195 179 188 211 227 233 224 217 224 228 230 239 244 245 248 250 250 253 256 251 243 242 242 243 235 229 234 237 234 230 230 225 215 224 232 228 232 237 232 230 237 238 239 242
293 293 293 293 293 293 292 291 290 289 289 289 289 290 289 290 289 286 282 278 279 280 282 283 283 284 288 288 279 271 268 264 265 261 258 258 257 257 247 237 234 222 216 208 201 197 199 205 212 226 228 222 227 230 236 258 258 235 241 252 248 248 255 256 253 246 238 239 235 227 231 235 232 232 234 225 217 224 225 215 215 231 238 232 226 234 245 246
294 294 293 292 292 292 292 292 291 290 289 288 287 288 288 290 289 285 281 278 277 277 280 282 281 283 287 285 281 280 269 262 270 261 250 252 250 237 220 229 245 240 230 223 216 214 215 217 219 225 228 227 224 225 241 252 247 237 241 246 243 246 250 252 257 255 241 234 230 227 229 232 236 242 234 223 224 227 218 210 210 222 236 236 232 238 248 250
293 293 292 291 290 289 289 289 290 290 289 288 286 284 285 287 288 284 280 277 273 273 276 279 281 283 283 273 265 324 320 292 288 287 266 257 254 211 192 212 250 268 242 232 230 226 224 223 227 233 232 230 217 210 228 237 235 237 240 241 240 241 243 248 254 253 247 236 225 224 226 226 230 236 234 229 231 225 216 214 214 218 230 239 241 243 248 253
292 292 291 289 289 287 286 285 285 286 286 287 286 285 284 284 284 281 276 270 268 269 271 272 270 266 249 217 147 89 10 314 289 297 292 278 263 191 173 190 234 251 237 230 233 227 228 224 223 228 225 225 217 207 218 230 237 241 245 250 248 244 245 251 259 251 246 240 226 221 222 221 222 230 241 234 229 231 224 216 209 211 228 239 244 247 249 254
292 291 290 289 288 287 286 284 283 282 282 282 284 285 285 282 279 276 273 268 266 267 265 264 267 266 253 231 191 97 334 282 275 284 282 269 250 183 170 187 221 231 227 225 233 228 224 225 224 226 223 219 219 216 218 225 237 246 255 264 266 271 266 262 271 263 248 243 229 217 218 220 220 237 258 234 227 247 224 205 198 212 235 238 238 244 244 241
292 291 291 289 288 287 287 285 284 283 281 279 279 281 285 283 276 275 277 274 270 268 263 260 263 271 265 235 216 165 199 257 267 265 263 254 232 191 185 198 216 225 227 220 226 235 226 227 229 230 228 222 219 223 227 230 241 250 258 269 276 279 273 268 275 264 251 244 224 208 210 217 218 236 259 240 232 231 199 193 201 220 230 235 236 233 227 232
292 292 290 288 288 286 286 285 284 284 282 280 277 276 277 276 275 278 282 281 274 268 268 261 254 263 271 248 216 183 190 232 261 258 254 239 222 207 200 207 216 221 227 221 219 229 232 235 237 234 231 230 226 227 234 240 246 253 260 269 271 269 265 273 288 271 255 242 210 195 200 211 218 231 245 240 234 221 198 198 205 208 219 233 229 218 218 233
293 291 289 287 286 286 286 285 284 285 283 282 280 276 271 270 276 278 280 283 279 266 266 268 261 260 263 253 218 192 192 210 242 252 251 230 218 215 208 213 224 221 223 227 223 225 230 240 248 235 221 227 237 236 241 248 247 249 254 257 259 263 264 281 313 284 217 202 180 184 196 209 214 221 226 228 233 232 225 214 200 200 220 220 211 214 224 232
293 292 289 287 287 287 286 286 288 287 283 281 279 273 269 267 269 269 271 283 283 270 260 268 266 262 260 255 223 203 200 204 222 235 245 234 218 216 212 214 227 224 220 227 228 227 229 240 257 233 213 217 235 239 242 249 245 240 244 248 254 259 259 275 312 347 171 168 160 178 196 209 203 209 222 228 234 231 224 218 208 205 214 213 209 215 222 227
296 294 291 290 290 289 287 289 291 285 273 260 250 250 271 274 265 268 279 292 288 275 262 258 257 263 263 239 217 210 212 221 223 220 234 244 232 217 209 208 222 225 223 225 227 232 234 240 248 241 229 218 225 236 240 244 247 248 244 246 259 263 260 267 291 311 202 179 191 208 228 230 210 209 218 229 239 228 216 213 210 208 213 219 221 217 217 222
299 297 296 294 291 289 290 289 281 267 253 233 231 225 233 262 258 271 291 299 294 286 275 256 248 263 248 217 204 205 223 238 239 222 221 240 242 225 209 206 219 227 226 227 228 235 240 242 244 242 241 233 225 232 235 235 247 255 249 245 259 269 270 271 280 298 298 201 198 217 240 250 243 235 225 234 243 227 213 205 201 207 214 219 230 230 229 234
298 297 298 296 291 290 291 286 271 259 254 248 252 245 237 256 258 272 296 296 302 303 275 234 228 247 243 221 200 196 214 235 249 227 208 225 236 227 217 213 221 229 226 228 229 231 241 247 242 237 241 238 227 226 228 233 244 252 255 251 252 264 275 279 279 284 287 266 189 197 227 250 258 254 238 237 236 212 201 195 192 204 215 221 230 229 229 241
298 298 297 295 291 289 288 284 276 258 254 256 265 271 282 282 240 213 288 296 309 338 239 216 216 235 232 209 204 210 219 228 247 223 196 215 229 222 222 216 217 229 227 234 237 232 238 244 237 231 239 238 225 222 229 238 243 248 259 257 249 259 272 278 274 268 276 272 201 194 215 239 257 254 241 235 228 207 193 193 198 207 217 224 224 219 224 238
301 302 300 294 290 293 289 278 272 259 252 256 260 267 295 274 195 179 94 324 235 243 246 219 215 228 195 176 200 218 226 215 235 234 196 212 225 220 225 217 211 223 225 235 247 245 240 244 239 228 233 238 234 237 240 240 244 251 261 261 262 267 268 271 262 250 254 256 232 211 206 216 260 254 249 244 234 222 206 203 208 211 216 224 225 223 230 236
306 307 304 296 290 296 294 275 272 267 259 263 263 246 234 212 192 185 174 229 274 300 279 235 221 225 199 184 203 218 224 212 220 232 203 209 221 218 224 221 215 228 234 235 247 248 242 246 242 228 228 236 237 241 243 240 242 248 252 253 263 267 267 270 250 232 239 234 228 230 223 226 262 260 264 254 231 222 207 199 201 205 211 220 230 238 244 247
306 308 306 300 290 293 293 280 275 271 264 264 251 214 211 208 192 195 216 247 277 274 235 231 234 231 215 202 209 221 231 217 211 219 202 200 212 216 218 218 219 235 243 245 252 248 239 242 237 225 225 226 231 239 241 239 235 234 238 243 251 257 266 279 243 217 234 242 211 220 233 239 237 264 279 252 223 219 208 199 196 202 211 217 231 245 252 253
305 307 305 299 292 288 286 284 280 265 253 243 225 208 205 203 206 216 217 249 279 257 198 214 217 219 219 213 214 227 240 222 210 215 202 195 205 214 215 213 217 230 239 244 256 247 236 242 241 233 231 221 225 241 241 239 235 228 221 222 243 258 252 280 250 207 218 220 206 213 231 235 220 248 308 250 222 219 217 212 208 216 222 220 226 238 245 250
304 305 302 298 297 286 275 280 282 270 255 235 219 205 194 187 225 225 224 232 232 83 53 271 243 218 221 221 219 227 237 227 215 215 205 199 205 215 219 215 214 226 236 243 254 249 235 239 242 239 237 230 229 235 238 239 236 229 211 202 210 179 123 260 254 218 232 235 240 236 231 226 196 114 40 223 202 196 203 211 219 229 231 226 226 232 239 244
304 304 301 300 298 286 270 269 273 272 257 234 215 197 191 203 231 227 232 240 236 257 320 309 301 281 238 224 224 223 227 229 224 215 205 203 206 211 218 220 216 223 234 237 242 248 239 230 232 230 228 234 234 226 226 236 237 229 213 207 215 206 181 217 248 200 202 249 247 233 225 211 169 124 101 175 188 180 179 183 198 215 220 224 234 238 242 238
304 303 302 301 295 287 274 260 264 267 253 234 211 197 200 215 225 228 236 245 252 273 299 305 299 290 267 239 237 230 226 231 227 216 210 210 212 211 213 221 222 223 231 234 232 241 249 240 234 230 226 237 241 223 216 230 245 224 213 221 237 235 205 203 256 261 191 33 304 204 141 137 160 140 129 173 187 185 189 191 196 204 207 212 229 238 239 232
304 306 306 302 295 293 289 270 264 262 249 232 209 205 214 223 228 234 239 251 267 283 300 307 294 281 268 253 252 243 235 235 226 218 218 216 217 219 219 223 226 224 228 233 231 233 250 253 243 238 230 227 235 230 216 223 242 224 215 221 231 245 238 211 234 255 218 52 278 149 112 129 144 139 168 196 187 169 169 181 193 202 205 214 228 232 227 227
309 311 307 300 291 276 277 271 263 263 252 231 216 218 228 235 238 242 246 258 270 281 301 306 298 287 271 252 248 247 241 233 222 223 233 226 219 222 226 225 224 224 228 235 240 243 251 255 253 247 224 213 224 239 227 225 236 236 232 229 220 233 237 213 196 222 174 67 224 182 151 147 147 150 184 208 203 177 167 175 190 201 208 224 235 226 211 212
312 319 316 312 316 318 288 281 279 291 275 240 233 236 241 244 246 249 253 262 271 283 298 298 294 297 290 274 262 253 244 230 221 227 240 237 220 218 226 226 216 215 222 233 241 246 250 255 257 248 225 213 217 223 224 226 231 236 238 238 234 231 218 194 176 159 158 151 283 187 158 151 137 150 182 212 214 201 201 199 197 203 210 223 228 218 212 216
315 329 324 317 336 338 312 307 311 304 287 262 251 250 254 259 260 259 258 261 268 277 288 288 287 292 294 294 289 275 257 239 227 226 233 239 232 221 229 236 224 216 219 227 239 243 243 247 260 253 234 235 232 216 218 220 218 230 240 243 249 253 248 198 195 205 126 168 283 16 131 114 106 155 184 213 221 220 222 217 213 216 218 223 224 219 218 219
328 337 330 317 325 320 308 306 303 296 289 279 271 267 268 272 275 275 272 271 273 276 280 282 288 296 294 283 284 295 296 266 223 204 210 225 234 227 230 240 243 236 229 225 238 250 241 227 236 249 222 221 249 222 216 227 228 231 239 242 240 228 214 196 206 221 231 173 182 131 206 335 100 174 196 214 227 228 223 221 221 220 216 216 219 218 215 213
341 353 347 336 322 306 298 297 295 296 295 288 285 284 281 283 285 283 278 276 274 275 277 277 283 293 294 286 292 308 322 310 238 203 212 234 241 238 233 235 245 248 239 232 234 251 258 221 216 231 224 209 225 223 216 276 354 345 283 270 257 225 200 185 216 228 229 232 189 153 185 152 134 189 203 216 228 224 215 219 210 198 197 198 204 210 208 209
329 341 349 352 330 303 294 297 297 300 295 286 284 282 276 277 279 279 280 280 274 271 274 273 274 281 284 288 301 304 311 321 283 212 226 246 244 245 243 237 240 244 237 233 229 215 239 242 216 224 235 225 229 261 264 276 279 316 21 19 358 320 221 203 214 240 243 269 320 75 127 148 154 185 190 194 205 193 181 192 190 182 187 189 193 195 191 191
331 339 358 2 341 311 302 307 300 284 277 273 273 269 265 264 258 259 267 275 281 279 275 275 272 267 266 272 294 298 297 313 329 223 231 244 241 246 248 237 231 233 231 228 228 213 200 312 244 222 232 237 240 249 255 265 261 260 356 20 15 357 327 227 219 217 213 219 221 49 79 165 161 184 191 180 173 171 167 167 172 180 184 185 184 181 181 184
33 19 14 2 344 327 320 318 307 294 283 274 269 263 264 266 253 252 257 265 292 294 276 276 282 271 265 270 287 293 281 283 311 328 186 234 254 260 269 241 213 218 236 228 224 221 217 273 345 254 230 257 249 247 244 252 266 301 1 6 1 351 359 11 195 194 191 194 184 135 91 183 183 192 198 182 155 157 162 156 160 176 183 187 182 172 174 177
65 52 43 8 339 326 326 325 318 312 301 289 282 270 268 279 263 252 254 266 302 309 278 263 272 277 275 273 291 296 267 262 283 281 241 297 283 265 283 259 196 178 175 201 207 222 230 240 291 335 91 81 246 252 241 244 273 333 358 354 349 347 5 41 164 178 157 169 175 163 145 163 186 194 189 176 159 148 153 157 158 168 182 190 182 164 160 159
71 94 99 322 313 320 338 338 323 317 310 303 303 287 270 292 283 253 244 264 293 301 274 257 258 285 282 278 303 313 269 257 274 267 270 276 263 254 260 259 216 192 175 156 159 183 218 234 249 249 240 274 340 303 272 265 303 344 359 347 339 347 9 59 189 230 172 157 150 163 170 161 165 178 175 173 177 172 170 167 158 159 170 178 174 165 166 169
35 16 329 310 320 351 359 351 333 326 327 319 320 314 269 278 291 256 221 242 294 294 273 266 254 291 302 292 302 310 277 282 304 300 172 223 243 252 193 185 215 214 207 190 174 175 175 215 237 236 242 257 280 296 289 279 280 275 315 327 326 344 14 65 137 37 199 175 122 144 176 165 150 160 171 172 173 174 177 172 158 156 162 164 163 165 171 173
21 360 343 350 1 360 358 352 343 355 6 351 341 342 324 328 337 278 211 208 283 278 268 282 240 278 329 306 294 305 273 282 337 8 8 189 157 132 167 182 182 188 205 220 213 199 204 243 233 224 228 230 236 258 263 255 257 252 263 280 292 320 358 24 20 355 229 204 148 154 169 156 143 158 173 175 171 170 177 176 163 162 161 149 145 149 155 161
18 21 11 27 10 352 356 356 351 46 50 41 40 39 43 47 41 55 179 172 129 159 316 313 248 256 356 329 277 294 245 239 27 29 35 137 138 156 184 205 200 184 190 219 211 199 216 232 207 198 206 196 201 205 186 198 239 246 258 263 267 282 312 5 28 22 210 170 158 166 164 144 145 166 172 175 176 178 186 185 170 162 155 142 135 138 144 154
39 57 53 58 36 1 360 6 30 88 71 61 44 39 44 43 49 74 68 55 67 63 29 6 272 230 30 328 255 209 145 134 76 64 86 81 78 228 275 310 201 196 184 124 207 200 202 192 168 171 183 180 196 209 210 220 191 179 253 270 268 270 278 306 38 118 145 142 150 167 167 150 153 172 173 172 177 182 189 191 180 166 161 161 160 159 162 169
67 64 57 61 51 19 9 15 56 86 64 60 42 30 38 36 32 57 64 56 56 48 37 33 24 202 212 260 261 178 153 176 212 218 143 100 85 44 331 329 270 209 187 56 323 220 211 134 144 156 168 170 188 206 215 221 174 122 80 30 302 284 269 265 258 166 156 150 151 161 161 153 159 179 181 175 177 183 189 195 195 185 180 189 194 193 192 191
85 73 54 52 50 26 17 19 37 54 32 41 37 27 34 33 17 20 55 52 48 47 50 54 60 142 196 268 262 226 198 196 224 238 225 183 148 82 331 313 332 262 220 321 330 270 234 240 193 163 183 180 160 174 182 186 132 101 88 88 72 19 167 180 185 169 167 162 157 155 150 148 160 182 191 181 177 184 188 190 197 199 198 202 204 204 204 201
Height
3102 3101 3101 3101 3101 3101 3101 3101 3101 3101 3100 3100 3100 3100 3100 3099 3099 3099 3099 3099 3099 3099 3098 3098 3098 3098 3097 3097 3097 3097 3097 3097 3097 3097 3098 3098 3098 3098 3099 3100 3100 3100 3101 3102 3103 3104 3105 3106 3107 3108 3108 3109 3110 3112 3113 3113 3115 3118 3119 3117 3116 3116 3115 3113 3112 3114 3120 3121 3119 3118 3116 3117 3118 3118 3119 3120 3118 3119 3120 3120 3122 3123 3123 3125 3126 3127 3127 3128
3100 3100 3100 3100 3100 3100 3099 3099 3099 3099 3099 3099 3098 3098 3098 3098 3098 3098 3098 3097 3097 3097 3097 3096 3096 3096 3096 3095 3095 3095 3095 3095 3095 3096 3096 3096 3096 3097 3097 3098 3099 3099 3100 3101 3101 3102 3103 3105 3106 3106 3107 3108 3109 3111 3112 3112 3113 3115 3116 3116 3114 3114 3113 3111 3112 3114 3120 3121 3119 3117 3116 3117 3118 3117 3119 3120 3118 3118 3119 3119 3121 3122 3123 3124 3125 3126 3126 3127
3099 3099 3099 3099 3098 3098 3098 3098 3098 3098 3097 3097 3097 3097 3097 3096 3096 3096 3096 3096 3096 3095 3095 3095 3094 3094 3094 3094 3094 3094 3093 3093 3094 3095 3095 3094 3095 3096 3096 3097 3097 3098 3099 3099 3100 3101 3102 3103 3104 3105 3106 3106 3108 3109 3111 3112 3113 3113 3114 3113 3112 3113 3112 3111 3113 3115 3118 3121 3119 3116 3116 3117 3118 3118 3118 3119 3118 3117 3118 3118 3119 3121 3122 3123 3124 3125 3125 3126
3098 3098 3097 3097 3097 3097 3097 3097 3097 3096 3096 3096 3095 3095 3095 3095 3095 3094 3094 3094 3094 3094 3093 3093 3093 3092 3092 3092 3092 3092 3091 3092 3093 3093 3093 3094 3094 3094 3095 3095 3096 3096 3097 3098 3099 3099 3100 3101 3102 3103 3104 3105 3107 3108 3109 3110 3112 3112 3111 3110 3110 3112 3111 3109 3113 3115 3116 3119 3118 3115 3116 3116 3117 3117 3117 3118 3117 3117 3117 3117 3119 3121 3122 3123 3123 3124 3124 3125
3097 3096 3096 3096 3096 3096 3096 3095 3095 3095 3095 3094 3094 3094 3093 3093 3093 3093 3092 3092 3092 3092 3092 3091 3091 3091 3090 3090 3090 3090 3090 3090 3091 3091 3092 3093 3093 3093 3094 3094 3094 3095 3096 3096 3097 3098 3099 3099 3100 3102 3103 3104 3105 3107 3107 3109 3111 3111 3110 3110 3111 3112 3110 3108 3111 3114 3115 3117 3116 3114 3115 3115 3115 3117 3117 3117 3117 3116 3116 3117 3119 3120 3121 3122 3123 3123 3123 3124
3095 3095 3095 3095 3095 3094 3094 3094 3094 3094 3093 3093 3093 3092 3092 3092 3091 3091 3091 3091 3090 3090 3090 3090 3089 3089 3089 3088 3088 3089 3089 3089 3090 3090 3090 3091 3092 3092 3092 3093 3093 3094 3094 3095 3096 3097 3097 3098 3098 3100 3102 3103 3104 3105 3106 3108 3110 3109 3109 3110 3110 3110 3109 3107 3110 3112 3114 3114 3114 3113 3113 3114 3115 3116 3117 3116 3116 3116 3116 3118 3119 3120 3120 3121 3122 3122 3122 3123
3094 3094 3093 3093 3093 3093 3093 3093 3093 3092 3092 3092 3091 3091 3090 3090 3090 3089 3089 3089 3089 3088 3088 3088 3088 3087 3087 3087 3087 3087 3087 3088 3089 3088 3088 3089 3090 3091 3091 3092 3092 3093 3093 3094 3095 3095 3096 3097 3097 3099 3101 3102 3103 3104 3105 3107 3109 3109 3108 3109 3109 3110 3108 3107 3109 3111 3112 3112 3112 3112 3113 3114 3115 3116 3116 3115 3115 3115 3116 3117 3119 3119 3119 3120 3120 3120 3121 3122
3093 3092 3092 3092 3092 3092 3091 3091 3091 3091 3091 3090 3090 3089 3089 3089 3088 3088 3088 3087 3087 3087 3086 3086 3086 3086 3086 3085 3085 3085 3085 3087 3088 3087 3086 3087 3088 3089 3090 3090 3091 3092 3092 3093 3094 3095 3095 3096 3096 3098 3100 3102 3103 3104 3105 3106 3106 3107 3107 3108 3108 3108 3107 3107 3108 3109 3111 3110 3108 3110 3112 3114 3115 3115 3116 3115 3114 3115 3115 3116 3117 3118 3118 3118 3119 3119 3120 3121
3091 3091 3091 3091 3091 3090 3090 3090 3090 3089 3089 3089 3088 3088 3088 3087 3087 3086 3086 3086 3085 3085 3084 3084 3084 3084 3084 3083 3083 3083 3084 3085 3086 3085 3085 3086 3086 3087 3088 3089 3090 3090 3091 3092 3093 3093 3094 3095 3096 3098 3100 3101 3103 3104 3105 3105 3104 3105 3106 3107 3107 3106 3106 3106 3107 3107 3110 3109 3107 3108 3109 3112 3114 3113 3115 3115 3112 3114 3115 3115 3116 3118 3118 3118 3118 3119 3120 3121
3090 3090 3089 3089 3089 3089 3089 3088 3088 3088 3087 3087 3087 3086 3086 3086 3085 3085 3084 3084 3083 3083 3083 3082 3082 3082 3082 3082 3082 3082 3082 3083 3083 3083 3084 3084 3085 3086 3087 3087 3088 3089 3090 3091 3092 3092 3093 3094 3096 3099 3100 3101 3102 3102 3103 3103 3103 3104 3105 3106 3106 3105 3105 3105 3105 3105 3108 3108 3107 3107 3108 3110 3112 3112 3114 3115 3112 3111 3113 3114 3115 3117 3118 3118 3119 3120 3121 3121
3088 3088 3088 3088 3087 3087 3087 3087 3086 3086 3086 3085 3085 3085 3084 3084 3084 3083 3083 3082 3082 3081 3081 3081 3080 3080 3080 3080 3081 3081 3081 3081 3080 3080 3081 3083 3083 3084 3085 3086 3086 3088 3089 3090 3090 3092 3093 3094 3096 3099 3100 3100 3101 3101 3101 3101 3102 3102 3103 3102 3102 3103 3103 3103 3103 3104 3106 3106 3105 3107 3108 3109 3111 3111 3112 3114 3113 3109 3110 3113 3114 3115 3117 3118 3119 3120 3121 3122
3086 3086 3086 3086 3086 3086 3085 3085 3085 3084 3084 3084 3084 3083 3083 3082 3082 3081 3081 3080 3080 3079 3079 3079 3078 3078 3078 3078 3079 3079 3080 3079 3078 3078 3078 3079 3081 3082 3083 3084 3085 3086 3087 3089 3090 3091 3093 3094 3095 3097 3098 3099 3099 3100 3100 3100 3101 3100 3100 3099 3099 3100 3100 3101 3101 3102 3103 3103 3104 3106 3106 3107 3108 3109 3110 3113 3113 3108 3107 3110 3112 3114 3115 3117 3119 3120 3121 3121
3084 3084 3084 3084 3084 3084 3084 3083 3083 3083 3082 3082 3082 3082 3081 3081 3080 3080 3079 3079 3078 3077 3077 3077 3076 3076 3076 3076 3077 3077 3077 3077 3076 3077 3076 3076 3079 3081 3082 3082 3084 3085 3086 3088 3089 3090 3092 3094 3095 3095 3096 3096 3096 3097 3097 3098 3099 3099 3099 3098 3097 3097 3096 3098 3100 3101 3101 3101 3104 3105 3103 3104 3106 3108 3109 3111 3112 3109 3106 3108 3110 3111 3113 3116 3118 3119 3120 3120
3082 3082 3082 3082 3082 3082 3082 3082 3081 3081 3081 3080 3080 3080 3079 3079 3079 3078 3078 3077 3076 3076 3075 3075 3074 3074 3073 3074 3075 3074 3075 3075 3075 3076 3075 3074 3076 3079 3080 3081 3082 3084 3085 3086 3087 3088 3090 3093 3093 3092 3093 3093 3093 3094 3095 3095 3096 3097 3098 3096 3096 3095 3093 3096 3098 3099 3100 3100 3103 3104 3101 3102 3104 3106 3107 3108 3110 3109 3106 3107 3108 3108 3110 3114 3116 3117 3119 3120
3080 3080 3080 3080 3080 3080 3080 3080 3079 3079 3079 3079 3078 3078 3078 3077 3077 3077 3076 3075 3075 3074 3074 3073 3072 3071 3071 3072 3073 3072 3073 3073 3074 3074 3074 3074 3075 3076 3078 3079 3080 3082 3083 3085 3086 3086 3088 3089 3090 3090 3091 3092 3092 3093 3093 3093 3093 3095 3095 3094 3094 3093 3091 3094 3096 3097 3098 3098 3101 3101 3099 3100 3102 3103 3105 3106 3107 3107 3107 3107 3106 3105 3106 3110 3113 3115 3117 3119
3079 3078 3078 3078 3078 3078 3078 3078 3078 3077 3077 3077 3077 3076 3076 3075 3075 3075 3074 3074 3073 3072 3072 3071 3070 3070 3069 3069 3070 3071 3071 3071 3072 3072 3072 3073 3073 3074 3076 3078 3079 3080 3081 3083 3084 3085 3086 3087 3088 3088 3089 3090 3091 3092 3093 3093 3092 3093 3093 3092 3092 3092 3091 3092 3092 3093 3095 3096 3098 3098 3097 3099 3100 3101 3102 3103 3105 3106 3107 3106 3105 3103 3104 3106 3110 3113 3116 3118
3077 3076 3076 3076 3076 3076 3076 3076 3075 3075 3075 3075 3075 3075 3074 3074 3073 3073 3072 3072 3071 3071 3070 3069 3068 3068 3068 3068 3068 3069 3070 3070 3070 3071 3071 3071 3072 3074 3075 3077 3078 3079 3081 3082 3082 3083 3084 3085 3086 3086 3087 3088 3089 3091 3092 3090 3090 3090 3090 3090 3090 3090 3090 3089 3089 3090 3092 3093 3094 3094 3095 3097 3098 3099 3099 3101 3104 3103 3104 3105 3103 3103 3104 3105 3108 3112 3115 3117
3075 3074 3074 3074 3073 3073 3073 3073 3073 3073 3073 3073 3073 3073 3072 3072 3071 3070 3070 3069 3069 3068 3068 3067 3067 3067 3066 3066 3067 3068 3068 3068 3069 3069 3070 3070 3072 3073 3074 3076 3078 3079 3080 3080 3081 3082 3083 3084 3085 3085 3085 3085 3086 3088 3087 3085 3087 3088 3088 3088 3087 3087 3087 3086 3086 3087 3088 3090 3092 3092 3092 3095 3097 3097 3096 3098 3102 3102 3102 3103 3102 3103 3103 3104 3107 3111 3114 3116
3072 3072 3072 3071 3071 3071 3071 3071 3071 3071 3071 3071 3071 3071 3070 3070 3069 3068 3067 3067 3067 3066 3066 3066 3065 3065 3066 3066 3066 3066 3068 3068 3067 3068 3069 3069 3071 3072 3073 3076 3078 3078 3079 3079 3079 3080 3081 3082 3083 3082 3081 3081 3082 3084 3083 3083 3086 3087 3086 3087 3087 3086 3085 3084 3083 3084 3086 3087 3088 3088 3089 3092 3094 3094 3095 3095 3099 3101 3100 3102 3102 3101 3101 3103 3106 3109 3112 3115
3070 3070 3069 3069 3068 3068 3068 3068 3068 3068 3069 3069 3069 3069 3068 3068 3067 3066 3064 3064 3064 3064 3064 3063 3062 3062 3064 3065 3065 3065 3067 3068 3068 3068 3069 3069 3070 3071 3072 3075 3077 3077 3077 3078 3078 3079 3080 3080 3079 3077 3077 3079 3081 3082 3083 3084 3086 3086 3086 3086 3086 3085 3084 3083 3081 3081 3084 3083 3082 3084 3086 3089 3092 3092 3093 3093 3096 3096 3095 3098 3100 3100 3101 3102 3104 3108 3110 3110
3068 3067 3067 3066 3066 3066 3066 3066 3066 3066 3066 3066 3067 3067 3067 3066 3065 3063 3061 3060 3062 3062 3061 3061 3060 3059 3061 3063 3064 3063 3065 3067 3067 3068 3069 3068 3070 3071 3071 3073 3075 3075 3075 3077 3078 3079 3079 3077 3075 3075 3077 3079 3080 3082 3083 3084 3084 3084 3085 3084 3083 3083 3080 3080 3078 3077 3080 3080 3078 3082 3086 3087 3089 3091 3091 3092 3094 3094 3092 3096 3099 3099 3100 3102 3105 3107 3105 3103
3066 3065 3064 3064 3063 3063 3063 3063 3063 3063 3064 3064 3064 3065 3065 3064 3063 3062 3059 3057 3059 3060 3058 3059 3059 3057 3058 3061 3062 3062 3062 3064 3065 3066 3067 3067 3068 3069 3070 3071 3072 3073 3074 3076 3076 3077 3077 3074 3073 3075 3077 3079 3079 3081 3082 3083 3083 3083 3083 3083 3081 3079 3078 3078 3076 3073 3075 3076 3075 3080 3084 3086 3087 3089 3090 3090 3092 3094 3095 3097 3098 3099 3100 3103 3104 3101 3100 3100
3063 3062 3062 3061 3061 3061 3061 3061 3061 3061 3061 3062 3062 3062 3062 3062 3061 3061 3058 3055 3055 3057 3056 3056 3056 3055 3056 3058 3060 3060 3059 3061 3063 3064 3065 3065 3066 3067 3069 3070 3071 3072 3073 3074 3074 3075 3074 3071 3072 3075 3076 3077 3078 3079 3081 3081 3081 3081 3081 3081 3079 3077 3078 3080 3076 3072 3071 3073 3075 3080 3083 3084 3086 3087 3088 3090 3091 3093 3095 3097 3099 3100 3099 3100 3098 3096 3098 3098
3061 3060 3059 3059 3059 3059 3059 3059 3059 3059 3059 3060 3060 3060 3060 3060 3060 3058 3057 3054 3051 3053 3054 3053 3052 3052 3054 3056 3058 3058 3057 3059 3061 3062 3063 3063 3065 3066 3067 3069 3070 3071 3071 3072 3073 3073 3071 3069 3071 3074 3074 3076 3076 3076 3079 3079 3079 3079 3079 3079 3077 3075 3078 3080 3078 3075 3073 3073 3076 3080 3082 3083 3085 3086 3087 3089 3090 3091 3093 3095 3100 3100 3096 3096 3096 3094 3095 3095
3059 3058 3058 3057 3057 3057 3057 3058 3058 3057 3057 3057 3058 3058 3058 3058 3057 3056 3055 3053 3049 3049 3051 3050 3049 3049 3051 3053 3054 3055 3056 3057 3058 3061 3061 3061 3063 3065 3066 3068 3069 3069 3070 3071 3072 3072 3070 3068 3071 3074 3073 3074 3075 3075 3076 3077 3077 3077 3077 3077 3076 3074 3077 3079 3079 3080 3079 3077 3076 3079 3081 3081 3083 3085 3086 3088 3089 3090 3091 3093 3099 3097 3093 3096 3096 3092 3093 3095
3057 3057 3056 3056 3055 3055 3056 3056 3056 3055 3055 3055 3055 3055 3056 3055 3055 3055 3055 3053 3048 3046 3047 3047 3047 3048 3047 3049 3050 3054 3056 3054 3055 3059 3060 3060 3062 3064 3065 3066 3067 3067 3068 3070 3071 3070 3069 3068 3070 3072 3072 3073 3073 3073 3074 3075 3076 3075 3075 3076 3076 3074 3076 3079 3079 3080 3081 3078 3077 3079 3081 3081 3081 3083 3084 3086 3087 3087 3088 3092 3096 3093 3091 3096 3095 3091 3093 3095
3056 3055 3055 3054 3053 3054 3054 3054 3054 3054 3053 3053 3053 3053 3054 3053 3054 3055 3055 3055 3048 3043 3043 3043 3045 3046 3045 3046 3049 3052 3053 3052 3053 3056 3057 3058 3060 3063 3064 3064 3065 3066 3067 3069 3068 3067 3067 3067 3068 3070 3071 3070 3071 3071 3072 3074 3074 3073 3074 3076 3075 3074 3075 3077 3078 3078 3079 3079 3078 3078 3080 3081 3080 3081 3082 3085 3085 3085 3087 3090 3092 3090 3090 3094 3092 3091 3094 3096
3054 3054 3053 3053 3052 3052 3053 3052 3053 3052 3052 3052 3052 3053 3053 3053 3055 3054 3056 3055 3047 3041 3041 3042 3044 3045 3045 3047 3048 3050 3050 3051 3053 3053 3055 3057 3059 3061 3061 3062 3064 3064 3065 3067 3065 3065 3066 3066 3066 3068 3069 3069 3069 3070 3071 3073 3073 3072 3073 3074 3074 3074 3074 3075 3077 3077 3078 3079 3078 3078 3080 3081 3079 3079 3080 3083 3084 3085 3086 3087 3087 3088 3090 3090 3089 3091 3094 3096
3052 3052 3052 3051 3050 3050 3051 3051 3051 3051 3050 3050 3051 3053 3053 3054 3054 3054 3057 3054 3044 3039 3042 3042 3043 3045 3046 3047 3048 3049 3050 3051 3052 3053 3054 3055 3057 3060 3060 3061 3062 3062 3063 3065 3063 3063 3065 3065 3065 3067 3067 3067 3068 3069 3070 3072 3071 3071 3073 3073 3073 3074 3073 3074 3075 3076 3077 3078 3077 3078 3079 3080 3079 3078 3080 3081 3081 3083 3086 3084 3083 3086 3088 3088 3089 3092 3095 3096
3051 3050 3050 3050 3049 3049 3049 3049 3049 3049 3049 3049 3050 3051 3052 3053 3053 3054 3056 3051 3042 3040 3042 3042 3043 3045 3046 3047 3048 3048 3050 3050 3051 3053 3053 3053 3056 3058 3059 3061 3061 3061 3061 3062 3062 3062 3062 3064 3064 3064 3064 3065 3067 3068 3069 3070 3070 3071 3072 3073 3073 3073 3073 3073 3073 3074 3076 3076 3076 3077 3078 3080 3079 3078 3079 3079 3078 3081 3083 3080 3081 3085 3086 3087 3089 3091 3095 3097
3049 3049 3049 3049 3048 3047 3048 3047 3047 3048 3048 3048 3049 3050 3050 3051 3052 3053 3052 3047 3042 3040 3040 3041 3043 3043 3044 3046 3046 3047 3048 3049 3050 3052 3052 3052 3054 3057 3058 3059 3059 3060 3060 3059 3060 3061 3060 3061 3063 3063 3063 3064 3065 3066 3067 3067 3068 3070 3071 3072 3073 3072 3071 3071 3071 3073 3074 3074 3075 3076 3078 3079 3079 3078 3078 3078 3077 3080 3079 3078 3081 3083 3085 3087 3088 3090 3094 3095
3047 3047 3047 3047 3046 3046 3046 3045 3046 3046 3046 3047 3048 3048 3049 3050 3051 3050 3047 3045 3043 3039 3038 3041 3042 3042 3043 3045 3045 3046 3047 3047 3048 3050 3051 3050 3052 3054 3055 3057 3057 3058 3058 3057 3059 3060 3059 3059 3061 3062 3062 3063 3064 3064 3065 3065 3066 3068 3069 3071 3072 3071 3072 3072 3071 3071 3072 3073 3074 3075 3077 3077 3077 3078 3078 3077 3077 3079 3078 3078 3081 3082 3083 3087 3088 3089 3093 3093
3046 3046 3045 3045 3045 3045 3045 3044 3044 3045 3045 3046 3046 3046 3048 3049 3048 3045 3044 3044 3041 3037 3038 3041 3042 3043 3044 3044 3045 3045 3046 3046 3047 3049 3050 3050 3051 3053 3054 3055 3057 3057 3057 3057 3058 3058 3058 3058 3059 3060 3060 3061 3063 3062 3063 3064 3064 3066 3067 3069 3070 3071 3074 3075 3072 3070 3071 3072 3073 3074 3075 3075 3076 3077 3077 3076 3077 3079 3078 3078 3081 3082 3084 3087 3087 3088 3092 3091
3044 3044 3043 3043 3043 3043 3043 3043 3043 3043 3044 3044 3045 3045 3046 3047 3044 3043 3043 3042 3038 3036 3038 3040 3041 3042 3042 3042 3043 3045 3045 3045 3046 3048 3049 3049 3050 3051 3053 3054 3055 3056 3057 3057 3057 3057 3057 3056 3056 3058 3058 3059 3060 3060 3061 3063 3064 3064 3065 3067 3068 3069 3072 3073 3072 3071 3071 3071 3071 3072 3073 3074 3075 3076 3076 3076 3076 3078 3079 3078 3080 3082 3085 3087 3085 3086 3088 3089
3043 3042 3042 3041 3041 3041 3041 3042 3041 3042 3042 3042 3043 3044 3043 3043 3042 3042 3042 3041 3040 3039 3039 3040 3040 3040 3040 3041 3042 3043 3044 3044 3045 3046 3047 3048 3049 3049 3051 3052 3053 3055 3056 3056 3056 3055 3055 3054 3054 3056 3056 3056 3058 3059 3060 3062 3063 3064 3064 3066 3066 3066 3068 3070 3071 3070 3070 3070 3070 3071 3072 3073 3075 3076 3077 3076 3076 3077 3078 3079 3080 3082 3084 3085 3084 3084 3086 3088
3041 3041 3041 3040 3040 3040 3040 3040 3040 3040 3041 3041 3041 3041 3040 3040 3040 3041 3041 3041 3042 3042 3041 3040 3040 3039 3039 3039 3040 3041 3042 3043 3044 3045 3045 3046 3047 3048 3050 3051 3052 3054 3054 3054 3055 3054 3053 3052 3053 3054 3054 3054 3056 3058 3059 3060 3061 3062 3063 3064 3065 3065 3066 3068 3070 3069 3069 3071 3071 3070 3072 3073 3075 3077 3077 3076 3076 3077 3077 3079 3080 3081 3083 3084 3083 3084 3086 3088
3040 3040 3039 3039 3039 3039 3039 3040 3040 3039 3039 3040 3039 3038 3038 3039 3040 3040 3040 3040 3041 3042 3041 3040 3039 3038 3037 3037 3038 3039 3040 3042 3043 3043 3043 3043 3044 3046 3048 3049 3050 3052 3053 3053 3053 3053 3052 3051 3051 3052 3052 3053 3055 3057 3058 3059 3061 3061 3062 3063 3063 3065 3065 3065 3068 3069 3070 3072 3070 3069 3070 3072 3073 3075 3076 3075 3076 3078 3078 3079 3080 3079 3080 3082 3082 3084 3086 3089
3039 3038 3038 3037 3037 3038 3038 3039 3039 3038 3039 3038 3038 3037 3038 3038 3038 3039 3040 3040 3040 3041 3041 3040 3038 3037 3036 3036 3036 3037 3038 3040 3041 3041 3042 3042 3043 3045 3046 3047 3048 3049 3050 3052 3052 3052 3052 3051 3049 3050 3051 3053 3055 3056 3056 3058 3059 3060 3061 3062 3062 3063 3063 3064 3066 3068 3070 3071 3070 3068 3069 3071 3072 3073 3074 3075 3076 3078 3079 3079 3079 3079 3079 3080 3081 3083 3086 3088
3038 3038 3037 3037 3037 3037 3037 3037 3037 3038 3038 3037 3037 3037 3037 3037 3037 3039 3039 3039 3040 3040 3039 3038 3037 3037 3036 3035 3035 3036 3036 3036 3038 3040 3040 3041 3042 3042 3043 3045 3046 3047 3048 3049 3049 3050 3051 3050 3049 3049 3051 3052 3053 3054 3055 3056 3058 3059 3060 3060 3061 3062 3062 3063 3065 3066 3068 3070 3071 3072 3072 3072 3072 3073 3073 3074 3075 3077 3079 3078 3078 3079 3080 3081 3082 3083 3085 3087
3037 3037 3037 3037 3037 3037 3037 3037 3037 3037 3036 3036 3036 3035 3036 3036 3036 3037 3038 3039 3039 3039 3038 3037 3036 3036 3035 3034 3034 3035 3035 3034 3033 3036 3039 3040 3041 3040 3041 3043 3044 3045 3046 3046 3047 3047 3047 3047 3048 3049 3050 3051 3053 3054 3055 3056 3057 3058 3058 3059 3060 3060 3061 3062 3063 3064 3066 3069 3071 3074 3074 3072 3072 3073 3073 3073 3074 3076 3077 3077 3077 3078 3079 3080 3081 3082 3084 3086
3036 3036 3037 3037 3037 3037 3037 3037 3036 3036 3035 3034 3035 3034 3035 3035 3035 3035 3036 3037 3037 3038 3038 3036 3035 3035 3034 3034 3033 3033 3034 3034 3033 3033 3036 3037 3038 3039 3041 3042 3043 3043 3044 3044 3046 3046 3046 3046 3047 3048 3048 3050 3053 3054 3053 3053 3055 3056 3057 3058 3058 3058 3059 3061 3063 3063 3064 3067 3069 3070 3072 3072 3072 3072 3072 3073 3074 3076 3078 3078 3078 3079 3079 3080 3081 3082 3083 3085
3035 3035 3036 3037 3037 3036 3036 3035 3035 3035 3034 3034 3034 3034 3034 3034 3034 3034 3035 3036 3036 3036 3036 3036 3035 3034 3033 3033 3034 3034 3034 3034 3033 3033 3034 3035 3036 3038 3040 3041 3042 3043 3043 3043 3044 3045 3045 3046 3046 3046 3047 3049 3051 3052 3051 3051 3053 3054 3055 3056 3056 3056 3058 3059 3061 3063 3063 3066 3068 3068 3069 3072 3071 3070 3070 3071 3073 3075 3077 3079 3079 3079 3080 3080 3081 3082 3083 3084
3035 3035 3036 3036 3036 3035 3034 3034 3034 3034 3033 3033 3033 3032 3032 3032 3032 3031 3032 3033 3034 3034 3034 3033 3032 3032 3032 3032 3034 3035 3034 3034 3033 3033 3033 3034 3036 3038 3039 3039 3040 3040 3040 3041 3043 3043 3045 3046 3045 3045 3046 3047 3048 3050 3051 3051 3052 3053 3054 3055 3056 3056 3057 3056 3057 3060 3062 3065 3067 3069 3071 3072 3071 3070 3069 3071 3073 3075 3077 3079 3080 3080 3081 3081 3082 3082 3083 3084
3035 3035 3035 3035 3035 3034 3034 3033 3032 3032 3031 3031 3030 3029 3030 3030 3029 3030 3030 3031 3032 3032 3031 3030 3030 3030 3031 3032 3033 3033 3034 3034 3033 3032 3033 3034 3036 3037 3038 3037 3037 3037 3038 3040 3041 3043 3045 3046 3046 3045 3046 3047 3048 3049 3051 3052 3053 3054 3055 3055 3055 3055 3056 3056 3056 3058 3060 3062 3065 3068 3071 3071 3070 3070 3071 3073 3075 3077 3078 3080 3081 3082 3083 3082 3082 3083 3083 3084
3035 3035 3035 3035 3034 3033 3033 3032 3031 3030 3029 3028 3027 3026 3027 3028 3028 3028 3029 3029 3030 3030 3028 3028 3029 3029 3030 3031 3031 3031 3032 3033 3033 3033 3034 3035 3036 3036 3036 3036 3036 3036 3038 3039 3041 3043 3045 3045 3046 3046 3047 3048 3049 3049 3050 3051 3053 3054 3055 3054 3054 3054 3055 3056 3057 3058 3059 3061 3062 3063 3067 3069 3069 3070 3071 3073 3075 3076 3078 3079 3080 3082 3083 3082 3082 3083 3084 3085
3034 3035 3035 3035 3034 3034 3033 3032 3031 3029 3027 3026 3025 3025 3026 3026 3025 3026 3028 3028 3029 3028 3027 3027 3029 3029 3030 3031 3031 3030 3030 3032 3033 3032 3033 3034 3034 3035 3035 3036 3036 3037 3038 3040 3041 3043 3044 3045 3046 3047 3048 3048 3048 3049 3049 3051 3052 3054 3055 3054 3054 3055 3055 3055 3056 3058 3059 3061 3062 3062 3063 3065 3068 3070 3072 3075 3075 3075 3076 3077 3078 3080 3081 3082 3083 3084 3085 3085
3033 3034 3034 3034 3034 3033 3033 3032 3030 3028 3026 3025 3024 3024 3024 3024 3024 3024 3026 3027 3028 3027 3027 3028 3029 3031 3032 3031 3030 3029 3030 3031 3031 3031 3032 3033 3034 3034 3035 3036 3037 3038 3039 3041 3042 3042 3043 3045 3046 3047 3048 3048 3048 3049 3049 3051 3052 3053 3054 3055 3054 3055 3056 3057 3057 3059 3059 3060 3062 3063 3063 3064 3067 3070 3073 3074 3074 3074 3075 3076 3077 3078 3081 3083 3084 3084 3085 3086
3033 3033 3034 3033 3033 3032 3031 3030 3028 3027 3026 3025 3025 3024 3023 3023 3023 3023 3025 3026 3027 3028 3028 3028 3029 3030 3030 3029 3029 3029 3029 3030 3030 3030 3032 3033 3034 3034 3035 3035 3036 3038 3039 3041 3042 3042 3042 3044 3045 3046 3047 3048 3049 3049 3049 3050 3051 3052 3054 3055 3054 3055 3057 3059 3059 3059 3060 3059 3060 3064 3065 3065 3067 3070 3072 3072 3072 3073 3075 3075 3077 3078 3080 3082 3082 3083 3084 3086
3033 3033 3033 3033 3032 3032 3031 3029 3027 3027 3026 3026 3026 3025 3023 3023 3024 3024 3025 3026 3026 3027 3028 3028 3028 3029 3028 3027 3028 3028 3028 3029 3031 3031 3032 3033 3034 3035 3035 3035 3036 3037 3038 3039 3040 3041 3042 3043 3044 3045 3046 3047 3048 3048 3048 3049 3051 3053 3054 3054 3054 3055 3058 3060 3060 3059 3059 3059 3059 3061 3063 3064 3067 3069 3070 3071 3073 3073 3074 3075 3077 3078 3080 3081 3081 3082 3083 3087
3033 3033 3033 3033 3032 3032 3031 3029 3027 3027 3027 3026 3026 3025 3024 3025 3025 3025 3026 3027 3027 3027 3028 3028 3028 3028 3027 3027 3028 3028 3028 3029 3030 3032 3033 3035 3036 3036 3035 3036 3036 3037 3037 3038 3040 3041 3041 3042 3043 3044 3045 3046 3047 3048 3049 3050 3052 3053 3054 3054 3054 3055 3058 3060 3061 3059 3059 3059 3059 3059 3060 3062 3065 3068 3069 3071 3072 3073 3074 3075 3076 3078 3080 3081 3082 3083 3084 3087
3033 3033 3033 3033 3032 3032 3031 3029 3028 3028 3027 3027 3027 3027 3026 3026 3026 3026 3026 3027 3027 3027 3028 3027 3027 3027 3027 3027 3028 3029 3029 3029 3030 3031 3033 3035 3036 3036 3036 3036 3036 3037 3037 3038 3040 3041 3041 3042 3043 3043 3045 3046 3048 3048 3049 3050 3052 3053 3054 3055 3055 3055 3056 3058 3060 3060 3058 3058 3058 3058 3058 3061 3064 3066 3068 3070 3072 3073 3073 3074 3075 3076 3078 3079 3080 3082 3083 3085
3033 3033 3033 3032 3032 3032 3032 3030 3029 3029 3028 3028 3028 3028 3027 3027 3027 3026 3026 3026 3027 3027 3027 3027 3027 3027 3027 3028 3028 3029 3029 3030 3030 3031 3033 3034 3035 3036 3037 3037 3037 3037 3038 3039 3040 3041 3042 3042 3043 3043 3045 3047 3048 3048 3048 3050 3052 3053 3054 3055 3056 3056 3056 3056 3059 3060 3059 3058 3058 3057 3059 3062 3064 3066 3067 3068 3071 3073 3073 3074 3074 3075 3076 3077 3078 3080 3081 3083